Location: Burera
(21.3780°N, 81.9534°E)
Time: 11:10:56
(UTC+00:00)

Meteor 2-6 Rocket - Pass Details

Date: 13 August 2020
Orbit: 806 x 914 km, 81.3° (Epoch: 21 September)

Event Time Altitude Azimuth Distance (km) Brightness Sun altitude
Rises 14:14:07 0° 357° (N) 3,405 7.7 -16.3°
Reaches altitude 10° 14:16:32 10° 0° (N) 2,484 6.9 -16.8°
Maximum altitude 14:22:09 68° 83° (E) 934 4.2 -18.0°
Enters shadow 14:26:35 18° 164° (SSE) 2,052 5.8 -18.9°
